Eau Claire, WI

11:04 AM CDT on October 23, 2017 (GMT -0500)
Chippewa Valley Regional

Weather History for KEAU - January, 2013

Change the Weather History Date:

Monday, January 14, 2013

  Actual Average Record
Temperature  
Mean Temperature 7 °F 14 °F  
Max Temperature 14 °F 23 °F 42 °F (1914)
Min Temperature 0 °F 5 °F -29 °F (1893)
Degree Days  
Heating Degree Days 58 51  
Month to date heating degree days 650 709  
Since 1 July heating degree days 3677 3885  
Cooling Degree Days 0 0  
Month to date cooling degree days 0 0  
Year to date cooling degree days 0 0  
Moisture  
Dew Point 2 °F    
Average Humidity 76    
Maximum Humidity 87    
Minimum Humidity 64    
Precipitation  
Precipitation 0.00 in 0.03 in 0.85 in (2014)
Month to date precipitation 0.23 0.39  
Year to date precipitation 0.23 0.39  
Snow  
Snow 0.00 in 0.40 in 9.00 in (2014)
Month to date snowfall 0.1 5.5  
Since 1 July snowfall 21.9 21.3  
Snow Depth T in    
Sea Level Pressure  
Sea Level Pressure 30.39 in    
Wind  
Wind Speed 6 mph (WSW)    
Max Wind Speed 15 mph    
Max Gust Speed 18 mph    
Visibility 9 miles    
Events Snow    
T = Trace of Precipitation, MM = Missing Value Source: NWS Daily Summary

Daily Weather History Graph

Daily Weather History Graph

Search for Another Location

Airport or City:

Trip Planner

Search our weather history database for the weather conditions in past years. The results will help you decide how hot, cold, wet, or windy it might be!

Date:

Astronomy

Jan. 14, 2013 Rise Set
Actual Time 7:40 AM CST 4:50 PM CST
Civil Twilight 7:07 AM CST 5:22 PM CST
Nautical Twilight 6:31 AM CST 5:59 PM CST
Astronomical Twilight 5:56 AM CST 6:34 PM CST
Moon 9:03 AM CST (1/14) 8:47 PM CST (1/14)
Length of Visible Light 10h 15m
Length of Day
9h 09m
Waxing Crescent, 11% of the Moon is Illuminated
Jan 14
Waxing Crescent
Jan 18
First Quarter
Jan 26
Full
Feb 3
Last Quarter
Feb 10
New

Hourly Weather History & Observations

Time (CST) Temp. Windchill Dew Point Humidity Pressure Visibility Wind Dir Wind Speed Gust Speed Precip Events Conditions
12:56 AM 3.9 °F -8.2 °F -0.9 °F 80% 30.29 in 10.0 mi WSW 6.9 mph - N/A   Clear
1:56 AM 3.0 °F -6.4 °F -0.9 °F 84% 30.31 in 10.0 mi WSW 4.6 mph - N/A   Clear
2:56 AM 3.0 °F -9.3 °F -0.9 °F 84% 30.32 in 10.0 mi SSW 6.9 mph - N/A   Clear
4:56 AM 3.0 °F -8.0 °F -0.9 °F 84% 30.33 in 10.0 mi SSW 5.8 mph - N/A   Clear
6:56 AM 3.9 °F -5.3 °F -0.0 °F 84% 30.38 in 10.0 mi SSW 4.6 mph - N/A   Clear
7:56 AM 3.9 °F -3.4 °F -0.0 °F 84% 30.41 in 10.0 mi SW 3.5 mph - N/A   Clear
8:56 AM 7.0 °F -4.5 °F 1.9 °F 80% 30.43 in 10.0 mi SW 6.9 mph - N/A   Partly Cloudy
9:56 AM 9.0 °F -2.2 °F 3.0 °F 77% 30.43 in 6.0 mi WSW 6.9 mph - 0.00 in Snow Light Snow
10:23 AM 10.4 °F -0.4 °F 3.2 °F 73% 30.35 in 7.0 mi WSW 6.9 mph - 0.00 in   Overcast
10:56 AM 10.9 °F -2.6 °F 5.0 °F 77% 30.43 in 10.0 mi West 10.4 mph - 0.00 in   Overcast
11:27 AM 10.4 °F -4.1 °F 5.0 °F 79% 30.35 in 6.0 mi West 11.5 mph - N/A   Haze
11:56 AM 12.0 °F -2.0 °F 5.0 °F 73% 30.41 in 6.0 mi WSW 11.5 mph - 0.00 in   Haze
1:56 PM 14.0 °F 1.2 °F 5.0 °F 67% 30.40 in 10.0 mi SW 10.4 mph - 0.00 in   Overcast
2:56 PM 14.0 °F 2.9 °F 6.1 °F 71% 30.41 in 8.0 mi West 8.1 mph - N/A   Overcast
3:56 PM 14.0 °F 0.5 °F 3.9 °F 64% 30.43 in 10.0 mi West 11.5 mph - N/A   Overcast
4:56 PM 12.0 °F 1.5 °F 3.0 °F 67% 30.43 in 10.0 mi West 6.9 mph - N/A   Mostly Cloudy
5:16 PM 12.2 °F 4.3 °F 3.2 °F 67% 30.36 in 10.0 mi West 4.6 mph - N/A   Scattered Clouds
5:56 PM 10.0 °F 3.6 °F 1.9 °F 70% 30.43 in 10.0 mi WSW 3.5 mph - N/A   Clear
6:56 PM 10.0 °F - 1.9 °F 70% 30.43 in 10.0 mi Calm Calm - N/A   Clear
7:56 PM 5.0 °F - 1.9 °F 87% 30.43 in 10.0 mi Calm Calm - N/A   Clear
8:56 PM 6.1 °F - 1.9 °F 83% 30.40 in 7.0 mi Calm Calm - N/A   Clear
9:56 PM 3.9 °F -3.4 °F -0.9 °F 80% 30.40 in 10.0 mi South 3.5 mph - N/A   Clear
10:56 PM 1.9 °F - -2.0 °F 83% 30.39 in 9.0 mi Calm Calm - N/A   Clear
11:56 PM 1.9 °F - -2.9 °F 80% 30.39 in 10.0 mi Calm Calm - N/A   Clear